Hauptseite
METAR-TAF:

METAR-TAF

Flughäfen :

Sion, Schweiz

Flughafen Sitten

Breite: 46-13-11N, Länge: 007-19-36E, Höhe: 483 m

Beobachtung

Neuester Wetterbericht von vor 1 Stunde und 6 Minuten, um 11:50 UTC
Wind 1 kt aus unterschiedlichen Richtungen
Temperatur 3°C
Luftfeuchtigkeit 75%
Luftdruck 1012 hPa
Sichtweite 10 km oder mehr
Aufgelockert bewölkt in der Höhe von 6000 ft
Geschlossene Wolkendecke in der Höhe von 9000 ft

METAR: LSMS 201150Z VRB01KT 9999 SCT060 OVC090 03/M01 Q1012 RMK BLU

Zeit: 13:56 (12:56 UTC)


TAF: fehlend

Wetterbeobachtungen und Prognosen von mehr als 4000 Flughäfen (METAR und TAF Bericht).

Die verfügbaren Stationen werden durch gelbe und rote Markierungen auf der Karte dargestellt.

Führen Sie die Maus auf sie, um den Namen der Station zu sehen.

Darauf klicken, um die Beobachtung von Wetterbeobachtungen und Prognosen zu sehen.

Um die Karte zu ändern : klicken Sie auf den grünen Tasten mit einem schwarzen Kreuz Zum Vergrößern, auf den grünen Button mit einem Gedankenstrich zu verkleinern, oder auf die grünen Pfeile für benachbarte Karten.


METAR-TAF: